TimeCDT,TemperatureF,Dew PointF,Humidity,Sea Level PressureIn,VisibilityMPH,Wind Direction,Wind SpeedMPH,Gust SpeedMPH,PrecipitationIn,Events,Conditions,WindDirDegrees,DateUTC
12:54 AM,46.0,39.9,79,30.04,10.0,WNW,11.5,18.4,N/A,,Overcast,290,2013-10-16 05:54:00
1:54 AM,46.0,39.0,76,30.04,10.0,WNW,13.8,20.7,N/A,,Overcast,290,2013-10-16 06:54:00
2:54 AM,46.0,37.9,73,30.05,10.0,WNW,8.1,17.3,N/A,,Overcast,300,2013-10-16 07:54:00
3:25 AM,46.4,37.4,71,30.05,10.0,WNW,12.7,-,N/A,,Overcast,300,2013-10-16 08:25:00
3:35 AM,46.4,37.4,71,30.05,10.0,WNW,12.7,-,N/A,,Overcast,290,2013-10-16 08:35:00
3:54 AM,46.0,37.0,71,30.05,10.0,WNW,11.5,-,N/A,,Overcast,300,2013-10-16 08:54:00
4:54 AM,46.0,37.0,71,30.04,10.0,WNW,8.1,16.1,N/A,,Overcast,300,2013-10-16 09:54:00
5:54 AM,46.0,37.9,73,30.04,10.0,NW,9.2,-,N/A,,Overcast,310,2013-10-16 10:54:00
6:08 AM,44.6,37.4,76,30.04,10.0,NW,8.1,-,N/A,,Overcast,310,2013-10-16 11:08:00
6:54 AM,45.0,39.0,80,30.05,10.0,WNW,6.9,-,0.00,,Overcast,300,2013-10-16 11:54:00
7:54 AM,45.0,37.9,76,30.05,10.0,WNW,6.9,-,N/A,,Overcast,290,2013-10-16 12:54:00
8:54 AM,46.0,37.9,73,30.06,10.0,WNW,11.5,17.3,N/A,,Overcast,290,2013-10-16 13:54:00
9:54 AM,46.9,37.9,71,30.07,10.0,WNW,11.5,-,N/A,,Overcast,300,2013-10-16 14:54:00
10:54 AM,51.1,37.9,61,30.07,10.0,NW,11.5,-,N/A,,Mostly Cloudy,320,2013-10-16 15:54:00
11:54 AM,51.1,36.0,56,30.07,10.0,NW,11.5,-,N/A,,Mostly Cloudy,310,2013-10-16 16:54:00
12:54 PM,54.0,35.1,49,30.05,10.0,NW,6.9,-,N/A,,Partly Cloudy,320,2013-10-16 17:54:00
1:54 PM,57.0,30.9,37,30.02,10.0,WNW,10.4,-,N/A,,Clear,300,2013-10-16 18:54:00
2:54 PM,57.0,30.0,36,30.00,10.0,NW,10.4,-,N/A,,Clear,310,2013-10-16 19:54:00
3:54 PM,57.9,33.1,39,29.97,10.0,WNW,6.9,-,N/A,,Clear,290,2013-10-16 20:54:00
4:54 PM,57.9,32.0,37,29.96,10.0,WNW,6.9,-,N/A,,Clear,300,2013-10-16 21:54:00
5:54 PM,57.0,30.9,37,29.96,10.0,WNW,4.6,-,N/A,,Clear,300,2013-10-16 22:54:00
6:54 PM,48.0,37.9,68,29.96,10.0,Calm,Calm,-,N/A,,Clear,0,2013-10-16 23:54:00
7:54 PM,43.0,37.0,80,29.97,10.0,SSW,3.5,-,N/A,,Clear,200,2013-10-17 00:54:00
8:54 PM,39.0,35.1,86,29.97,10.0,Calm,Calm,-,N/A,,Clear,0,2013-10-17 01:54:00
9:54 PM,39.0,36.0,89,29.96,10.0,SSW,3.5,-,N/A,,Clear,210,2013-10-17 02:54:00
10:54 PM,37.9,35.1,89,29.96,10.0,SSW,3.5,-,N/A,,Clear,200,2013-10-17 03:54:00
11:54 PM,37.0,34.0,89,29.96,10.0,SSW,3.5,-,N/A,,Clear,200,2013-10-17 04:54:00